FW2664 Weather Reports


Display with metric or nautical units.
time (UTC)temp
F
wind
direction
speed
MPH
gust
MPH
rain 1hr
in
rain 24hr
in
rain mn
in
humidity
%
barometer
mb
20260502170505 65 142 0.0 2.0 0.00 0.00 0.00 38 1015.9
20260502163949 66 112 3.0 4.0 0.00 0.00 0.00 39 1016.0
20260502163444 65 95 2.0 4.0 0.00 0.00 0.00 35 1016.1
20260502162942 65 259 2.0 4.0 0.00 0.00 0.00 37 1016.3
20260502162439 65 42 4.0 6.0 0.00 0.00 0.00 38 1016.3
20260502161936 65 50 4.0 8.0 0.00 0.00 0.00 38 1016.3
20260502161432 65 99 4.0 6.0 0.00 0.00 0.00 40 1016.5
20260502160930 64 55 3.0 5.0 0.00 0.00 0.00 39 1016.5
20260502160428 64 310 3.0 8.0 0.00 0.00 0.00 41 1016.6
20260502151912 63 72 5.0 6.0 0.00 0.00 0.00 38 1016.4
20260502151408 62 50 3.0 5.0 0.00 0.00 0.00 40 1016.6
20260502150906 61 70 8.0 10.0 0.00 0.00 0.00 43 1016.5
20260502150402 61 177 2.0 6.0 0.00 0.00 0.00 42 1016.5
20260502130248 57 53 4.0 6.0 0.00 0.00 0.00 56 1016.3
20260502123734 57 78 3.0 4.0 0.00 0.00 0.00 58 1016.1
20260502123231 57 69 1.0 3.0 0.00 0.00 0.00 59 1016.0
20260502122728 56 53 3.0 4.0 0.00 0.00 0.00 57 1016.0
20260502122224 55 56 2.0 4.0 0.00 0.00 0.00 62 1016.1
20260502121722 53 84 3.0 4.0 0.00 0.00 0.00 64 1016.2
20260502121220 50 61 2.0 2.0 0.00 0.00 0.00 69 1016.0
20260502120716 50 23 2.0 3.0 0.00 0.00 0.00 68 1015.9
20260502120213 49 55 2.0 3.0 0.00 0.00 0.00 70 1016.1
20260502115711 48 31 3.0 3.0 0.00 0.00 0.00 72 1015.9
20260502115207 48 52 2.0 3.0 0.00 0.00 0.00 76 1015.9
20260502114703 46 56 2.0 2.0 0.00 0.00 0.00 79 1015.7
20260502114200 44 49 2.0 2.0 0.00 0.00 0.00 82 1015.6
20260502113657 43 93 2.0 3.0 0.00 0.00 0.00 85 1015.4
20260502113155 42 89 2.0 2.0 0.00 0.00 0.00 86 1015.5
20260502112653 42 79 2.0 2.0 0.00 0.00 0.00 86 1015.2
20260502112150 42 72 2.0 3.0 0.00 0.00 0.00 86 1015.5
20260502111648 42 74 2.0 3.0 0.00 0.00 0.00 85 1015.8
20260502111145 42 82 2.0 2.0 0.00 0.00 0.00 85 1015.5
20260502110643 42 79 2.0 3.0 0.00 0.00 0.00 84 1015.5
20260502110140 42 89 2.0 3.0 0.00 0.00 0.00 84 1015.6
20260502105637 42 80 2.0 2.0 0.00 0.00 0.00 82 1015.4
20260502105134 42 80 2.0 2.0 0.00 0.00 0.00 83 1015.5
20260502104631 43 83 2.0 2.0 0.00 0.00 0.00 82 1015.6
20260502104129 43 88 2.0 3.0 0.00 0.00 0.00 81 1015.4
20260502103626 43 83 2.0 3.0 0.00 0.00 0.00 81 1015.4
20260502103124 43 74 2.0 3.0 0.00 0.00 0.00 80 1015.3
20260502102621 43 78 3.0 3.0 0.00 0.00 0.00 80 1015.2
20260502102118 43 83 3.0 3.0 0.00 0.00 0.00 80 1015.1
20260502101616 44 64 2.0 3.0 0.00 0.00 0.00 79 1015.4
20260502101114 44 78 2.0 2.0 0.00 0.00 0.00 77 1015.3
20260502100612 44 74 3.0 3.0 0.00 0.00 0.00 77 1015.1
20260502100110 45 65 2.0 3.0 0.00 0.00 0.00 77 1015.2
20260502091044 48 87 2.0 2.0 0.00 0.00 0.00 65 1015.1
20260502090541 49 75 2.0 3.0 0.00 0.00 0.00 65 1015.0
20260502071436 50 74 2.0 2.0 0.00 0.00 0.00 64 1015.8
20260502070933 50 75 2.0 3.0 0.00 0.00 0.00 60 1015.6
20260502070431 50 61 2.0 3.0 0.00 0.00 0.00 60 1015.5
20260502065929 50 56 3.0 3.0 0.00 0.00 0.00 60 1015.5
20260502065428 50 70 2.0 3.0 0.00 0.00 0.00 60 1015.5
20260502064925 50 56 3.0 3.0 0.00 0.00 0.00 61 1015.6
20260502064423 50 69 3.0 3.0 0.00 0.00 0.00 62 1015.6
20260502063920 50 73 3.0 4.0 0.00 0.00 0.00 61 1015.7
20260502063417 50 84 3.0 3.0 0.00 0.00 0.00 61 1015.8
20260502062915 50 60 3.0 4.0 0.00 0.00 0.00 62 1015.7
20260502062412 50 70 3.0 3.0 0.00 0.00 0.00 62 1015.6
20260502061911 50 74 2.0 3.0 0.00 0.00 0.00 61 1015.9
20260502061409 50 82 3.0 4.0 0.00 0.00 0.00 60 1015.6
20260502060904 51 57 3.0 4.0 0.00 0.00 0.00 60 1015.8
20260502060359 51 60 3.0 3.0 0.00 0.00 0.00 58 1015.9
20260502055856 51 75 3.0 4.0 0.00 0.00 0.00 58 1016.1
20260502055354 52 86 2.0 4.0 0.00 0.00 0.00 57 1016.0
20260502054854 52 28 2.0 4.0 0.00 0.00 0.00 56 1015.8
20260502054350 52 349 2.0 4.0 0.00 0.00 0.00 56 1015.7
20260502053848 52 58 1.0 4.0 0.00 0.00 0.00 55 1015.6
20260502053345 52 42 4.0 5.0 0.00 0.00 0.00 55 1015.6
20260502052843 52 15 3.0 4.0 0.00 0.00 0.00 55 1015.4
20260502052341 52 54 2.0 3.0 0.00 0.00 0.00 55 1015.2
20260502051838 53 31 3.0 5.0 0.00 0.00 0.00 54 1015.2
20260502051337 53 54 3.0 4.0 0.00 0.00 0.00 54 1015.1
20260502050833 53 6 3.0 4.0 0.00 0.00 0.00 53 1015.2
20260502050329 53 15 2.0 4.0 0.00 0.00 0.00 54 1015.1
20260502045826 53 5 2.0 4.0 0.00 0.00 0.00 54 1015.1
20260502045323 53 56 3.0 4.0 0.00 0.00 0.00 55 1015.0
20260502044820 53 39 4.0 4.0 0.00 0.00 0.00 54 1015.1
20260502044316 53 6 2.0 4.0 0.00 0.00 0.00 54 1015.3
20260502043814 53 22 3.0 4.0 0.00 0.00 0.00 53 1015.4
20260502043311 53 37 3.0 4.0 0.00 0.00 0.00 53 1015.7
20260502042810 53 11 2.0 3.0 0.00 0.00 0.00 54 1015.5
20260502042308 53 39 2.0 3.0 0.00 0.00 0.00 53 1015.5
20260502041805 53 25 2.0 3.0 0.00 0.00 0.00 53 1015.6
20260502041303 53 16 2.0 3.0 0.00 0.00 0.00 53 1015.7
20260502040800 54 30 2.0 3.0 0.00 0.00 0.00 53 1016.0
20260502040256 54 24 2.0 3.0 0.00 0.00 0.00 52 1015.8
20260502035752 54 32 3.0 3.0 0.00 0.00 0.00 52 1015.7
20260502035249 54 0 3.0 5.0 0.00 0.00 0.00 51 1015.8
20260502034746 54 32 2.0 4.0 0.00 0.00 0.00 52 1015.9
20260502034245 54 54 2.0 3.0 0.00 0.00 0.00 53 1016.0
20260502033743 54 15 3.0 4.0 0.00 0.00 0.00 51 1015.9
20260502033240 54 22 3.0 4.0 0.00 0.00 0.00 51 1016.1
20260502032736 55 28 2.0 4.0 0.00 0.00 0.00 51 1016.1
20260502032233 55 47 2.0 3.0 0.00 0.00 0.00 52 1016.3
20260502031731 55 34 3.0 3.0 0.00 0.00 0.00 50 1016.3
20260502031229 55 37 3.0 3.0 0.00 0.00 0.00 50 1016.5
20260502030727 55 13 3.0 4.0 0.00 0.00 0.00 49 1016.4
20260502030225 55 46 2.0 3.0 0.00 0.00 0.00 49 1016.3
20260502025721 55 47 0.0 4.0 0.00 0.00 0.00 49 1016.2
20260502025220 56 51 2.0 4.0 0.00 0.00 0.00 49 1016.0
20260502024717 56 41 2.0 4.0 0.00 0.00 0.00 48 1016.2
20260502024215 56 88 2.0 3.0 0.00 0.00 0.00 48 1016.0
20260502023713 56 45 2.0 3.0 0.00 0.00 0.00 48 1016.1
20260502023210 56 9 3.0 4.0 0.00 0.00 0.00 47 1016.1
20260502022707 56 27 2.0 4.0 0.00 0.00 0.00 49 1016.0
20260502022203 56 13 2.0 3.0 0.00 0.00 0.00 48 1015.8
20260502021701 56 5 2.0 4.0 0.00 0.00 0.00 48 1015.9
20260502021158 56 50 2.0 3.0 0.00 0.00 0.00 48 1015.8
20260502020655 57 55 2.0 3.0 0.00 0.00 0.00 47 1015.9
20260502020152 57 1 2.0 3.0 0.00 0.00 0.00 47 1015.6
20260502015650 57 37 2.0 3.0 0.00 0.00 0.00 47 1015.6
20260502015146 57 51 2.0 3.0 0.00 0.00 0.00 47 1015.6
20260502014644 57 15 3.0 4.0 0.00 0.00 0.00 46 1015.5
20260502014140 57 20 4.0 4.0 0.00 0.00 0.00 46 1015.6
20260502013636 57 22 2.0 4.0 0.00 0.00 0.00 45 1015.3
20260502013132 57 45 2.0 4.0 0.00 0.00 0.00 45 1015.4
20260502012630 57 42 2.0 4.0 0.00 0.00 0.00 45 1015.2
20260502012128 58 54 2.0 3.0 0.00 0.00 0.00 45 1015.4
20260502011624 57 59 2.0 4.0 0.00 0.00 0.00 43 1015.4
20260502011120 58 73 2.0 3.0 0.00 0.00 0.00 43 1015.3
20260502010618 58 84 2.0 4.0 0.00 0.00 0.00 43 1015.4
20260502010114 58 55 2.0 3.0 0.00 0.00 0.00 42 1015.1
20260502005612 58 21 2.0 3.0 0.00 0.00 0.00 40 1014.9
20260502005109 58 41 2.0 3.0 0.00 0.00 0.00 40 1014.8
20260502004604 59 59 1.0 3.0 0.00 0.00 0.00 40 1014.8
20260502004101 59 21 3.0 3.0 0.00 0.00 0.00 39 1014.4
20260502003600 59 33 0.0 3.0 0.00 0.00 0.00 39 1014.5
20260502003056 59 61 2.0 3.0 0.00 0.00 0.00 38 1014.4
20260502002552 59 26 2.0 3.0 0.00 0.00 0.00 39 1014.4
20260502002050 59 47 2.0 2.0 0.00 0.00 0.00 40 1014.2
20260502001548 60 54 2.0 4.0 0.00 0.00 0.00 38 1014.2
20260502001044 60 14 1.0 4.0 0.00 0.00 0.00 37 1014.1
20260502000543 60 28 2.0 3.0 0.00 0.00 0.00 35 1013.9
20260502000040 61 0 2.0 4.0 0.00 0.00 0.00 34 1013.7
20260501235535 61 4 4.0 5.0 0.00 0.00 0.00 34 1013.6
20260501235031 62 341 3.0 6.0 0.00 0.00 0.00 34 1013.3
20260501234527 62 347 3.0 4.0 0.00 0.00 0.00 33 1013.1
20260501234026 62 15 3.0 5.0 0.00 0.00 0.00 33 1013.2
20260501233523 62 345 2.0 4.0 0.00 0.00 0.00 33 1013.3
20260501233020 62 338 4.0 6.0 0.00 0.00 0.00 32 1013.2
20260501232516 62 46 2.0 4.0 0.00 0.00 0.00 36 1013.2
20260501232013 62 18 3.0 4.0 0.00 0.00 0.00 34 1013.1
20260501231511 62 351 4.0 4.0 0.00 0.00 0.00 31 1013.3
20260501231009 63 345 2.0 4.0 0.00 0.00 0.00 31 1013.5
20260501230508 64 23 4.0 4.0 0.00 0.00 0.00 32 1013.5
20260501230005 64 2 3.0 6.0 0.00 0.00 0.00 31 1013.3
20260501225503 63 12 3.0 4.0 0.00 0.00 0.00 33 1013.0
20260501224958 64 343 2.0 4.0 0.00 0.00 0.00 31 1012.8
20260501224456 64 9 3.0 5.0 0.00 0.00 0.00 30 1013.1
20260501223953 65 12 3.0 3.0 0.00 0.00 0.00 30 1013.1
20260501223449 65 356 3.0 6.0 0.00 0.00 0.00 30 1013.1
20260501222944 64 0 5.0 5.0 0.00 0.00 0.00 30 1012.9
20260501222442 64 21 3.0 5.0 0.00 0.00 0.00 31 1012.7
20260501221938 64 30 6.0 7.0 0.00 0.00 0.00 32 1012.8
20260501221436 64 11 2.0 6.0 0.00 0.00 0.00 32 1012.9
20260501220933 65 35 4.0 6.0 0.00 0.00 0.00 31 1012.8
20260501220431 65 10 4.0 5.0 0.00 0.00 0.00 28 1012.8
20260501215926 65 20 2.0 6.0 0.00 0.00 0.00 30 1013.0
20260501215424 65 17 2.0 3.0 0.00 0.00 0.00 35 1012.9
20260501214919 66 16 2.0 5.0 0.00 0.00 0.00 33 1013.1
20260501214414 66 2 4.0 6.0 0.00 0.00 0.00 30 1013.0
20260501213910 66 48 0.0 3.0 0.00 0.00 0.00 32 1013.0
20260501213407 66 11 2.0 4.0 0.00 0.00 0.00 33 1013.2
20260501212903 66 262 6.0 8.0 0.00 0.00 0.00 29 1013.1
20260501212400 65 21 4.0 7.0 0.00 0.00 0.00 31 1013.1
20260501211857 65 359 2.0 5.0 0.00 0.00 0.00 33 1012.9
20260501211354 65 35 4.0 6.0 0.00 0.00 0.00 32 1013.1
20260501210852 65 48 6.0 7.0 0.00 0.00 0.00 33 1013.2
20260501210348 65 296 3.0 6.0 0.00 0.00 0.00 34 1013.4
20260501205845 65 276 5.0 5.0 0.00 0.00 0.00 39 1013.2
20260501205342 65 312 4.0 4.0 0.00 0.00 0.00 35 1013.2
20260501204838 65 5 4.0 8.0 0.00 0.00 0.00 35 1013.4
20260501204335 66 10 3.0 3.0 0.00 0.00 0.00 40 1013.3
20260501203831 66 276 7.0 11.0 0.00 0.00 0.00 37 1013.5
20260501203328 66 349 4.0 4.0 0.00 0.00 0.00 37 1013.5
20260501202825 67 321 4.0 5.0 0.00 0.00 0.00 41 1013.5
20260501202322 66 25 3.0 8.0 0.00 0.00 0.00 38 1013.6
20260501201819 66 324 4.0 7.0 0.00 0.00 0.00 37 1013.8
20260501201316 67 349 5.0 6.0 0.00 0.00 0.00 40 1013.6
20260501200813 66 67 3.0 6.0 0.00 0.00 0.00 42 1013.9
20260501200309 67 314 3.0 9.0 0.00 0.00 0.00 39 1013.8
20260501195808 67 255 2.0 6.0 0.00 0.00 0.00 44 1014.0
20260501195305 67 328 2.0 6.0 0.00 0.00 0.00 42 1013.8
20260501194759 66 346 0.0 5.0 0.00 0.00 0.00 45 1014.0
20260501194255 67 271 8.0 9.0 0.00 0.00 0.00 42 1014.3
20260501193752 66 330 1.0 5.0 0.00 0.00 0.00 41 1014.2
20260501193250 67 262 4.0 6.0 0.00 0.00 0.00 42 1014.4
20260501192747 67 206 4.0 6.0 0.00 0.00 0.00 40 1014.5
20260501192244 68 258 5.0 7.0 0.00 0.00 0.00 40 1014.2
20260501191741 67 327 3.0 6.0 0.00 0.00 0.00 40 1014.3
20260501191238 67 341 1.0 5.0 0.00 0.00 0.00 41 1014.3
20260501190735 67 273 3.0 7.0 0.00 0.00 0.00 39 1014.4
20260501190231 67 300 2.0 6.0 0.00 0.00 0.00 42 1014.4
20260501185727 67 213 2.0 7.0 0.00 0.00 0.00 43 1014.4
20260501185223 67 323 4.0 6.0 0.00 0.00 0.00 42 1014.4
20260501184719 67 289 0.0 7.0 0.00 0.00 0.00 42 1014.3
20260501184214 67 17 3.0 4.0 0.00 0.00 0.00 43 1014.2
20260501183710 68 328 2.0 3.0 0.00 0.00 0.00 47 1014.4
20260501183208 67 34 1.0 5.0 0.00 0.00 0.00 45 1014.4
20260501182704 67 293 2.0 9.0 0.00 0.00 0.00 46 1014.2
20260501182200 67 17 2.0 6.0 0.00 0.00 0.00 45 1014.2
20260501181658 66 2 2.0 4.0 0.00 0.00 0.00 46 1014.2
20260501181155 67 326 4.0 5.0 0.00 0.00 0.00 48 1014.3
20260501180653 67 318 2.0 4.0 0.00 0.00 0.00 49 1014.2
20260501180148 67 224 0.0 3.0 0.00 0.00 0.00 44 1014.1
20260501175645 66 27 2.0 9.0 0.00 0.00 0.00 47 1014.2
20260501175143 67 10 3.0 4.0 0.00 0.00 0.00 45 1014.3
20260501174639 67 13 2.0 3.0 0.00 0.00 0.00 49 1014.4
20260501174137 68 45 5.0 9.0 0.00 0.00 0.00 48 1014.3
20260501173634 68 352 2.0 3.0 0.00 0.00 0.00 49 1014.5
20260501173131 67 177 2.0 5.0 0.00 0.00 0.00 47 1014.4